Location: Amarillo Post Office Jordan Station
(35.1907°N, 101.9342°W)
Time: 01:22:42
(UTC+00:00)

Daily predictions for brighter satellites

Satellite Brightness Start Highest point End
(mag) Time Altitude Azimuth Time Altitude Azimuth Time Altitude Azimuth
STARLINK-1161 4.0 02:14:47 10° NW 02:18:51 54° NE 02:22:54 10° ESE
STARLINK-1238 4.1 02:18:36 10° SSW 02:22:27 39° SE 02:26:20 10° ENE
STARLINK-1160 3.9 02:19:44 10° NW 02:23:50 60° NE 02:27:55 10° ESE
MOS 1 4.4 02:19:03 10° SSE 02:24:38 61° ENE 02:30:16 10° N
Cosmos 405 Rocket 3.3 02:21:36 10° NNW 02:25:35 63° W 02:29:29 10° S
USA 229 DEB 3.6 02:20:12 10° SSW 02:26:33 67° ESE 02:33:11 10° NE
USA 229 3.6 02:20:19 10° SSW 02:26:40 66° ESE 02:33:17 10° NE
STARLINK-1201 3.9 02:23:29 10° SSW 02:27:26 45° SE 02:31:23 10° ENE
OAO 3 Copernicus 4.3 02:23:14 10° W 02:28:18 78° S 02:33:21 10° ESE
ATLAS CENTAUR R/B 4.3 02:24:39 10° WSW 02:28:42 23° NW 02:31:01 10° N
STARLINK-1170 3.8 02:24:42 10° NW 02:28:49 67° NE 02:32:55 10° SE
Cosmos 389 Rocket 3.8 02:26:31 10° SE 02:29:10 21° E 02:31:49 10° NE
Genesis I 3.9 02:27:15 10° NW 02:31:00 51° WSW 02:34:42 10° SSE
STARLINK-1206 3.8 02:28:23 10° SSW 02:32:23 50° SE 02:36:24 10° NE
STARLINK-1150 3.7 02:29:40 10° NW 02:33:49 75° NE 02:37:42 11° SE
Cosmos 1500 4.2 02:30:07 10° NNW 02:33:50 48° W 02:37:32 10° SSW
NOSS 3-1 (C) 3.1 02:29:25 10° SSW 02:34:40 83° ESE 02:40:37 10° NNE
NOSS 3-1 (A) 3.4 02:30:58 10° S 02:35:58 47° ESE 02:41:34 10° NE
Cosmos 1464 Rocket 4.2 02:29:51 10° N 02:36:06 56° E 02:42:19 10° SSE
Resurs 1-3 4.5 02:33:15 10° SE 02:37:10 33° ENE 02:41:07 10° N
STARLINK-1205 3.6 02:33:18 10° SSW 02:37:20 56° SE 02:41:24 10° NE
Cosmos 2251 Rocket 3.6 02:33:23 10° N 02:38:35 62° ENE 02:43:44 10° SSE
Okean 1 4.4 02:35:19 10° SSE 02:38:44 27° E 02:42:10 10° NNE
STARLINK-1151 3.6 02:34:38 10° NW 02:38:48 83° NE 02:42:30 13° SE
DMSP B5D2-2 4.1 02:33:41 10° NNE 02:38:55 60° E 02:44:07 10° S
Ariane Rocket 3.3 02:36:58 10° S 02:42:00 69° WSW 02:47:04 10° NNW
STARLINK-1218 3.6 02:38:13 10° SW 02:42:18 64° SE 02:46:24 10° NE
STARLINK-1133 3.6 02:39:36 10° NW 02:43:46 88° SW 02:47:16 14° SE
Cosmos 2242 Rocket 3.7 02:40:42 10° S 02:44:58 53° E 02:49:16 10° NNE
FREGAT/IRIS 3.2 02:42:50 10° S 02:45:25 49° W 02:48:02 10° NNW
GPS 2-04 Rocket1 4.4 02:44:55 10° S 02:46:17 12° SSE 02:46:17 12° SSE
NOSS 2-3 (C) 3.8 02:43:14 10° S 02:47:11 45° ESE 02:51:30 10° NE
STARLINK-1254 3.5 02:43:10 10° SW 02:47:16 72° SE 02:51:24 10° NE
STARLINK-1139 3.6 02:44:36 10° NW 02:48:45 80° SW 02:52:04 15° SE
DELTA 2 R/B (1) 4.4 02:43:50 10° W 02:48:58 39° SSW 02:53:30 13° SSE
MetOp-A 4.2 02:45:04 10° SSE 02:50:21 65° ENE 02:55:39 10° N
Gbstr 26 Del rocket 4.5 02:42:50 10° NW 02:50:59 90° NNW 02:57:13 15° SE
CZ-2C R/B 3.6 02:47:46 10° NNE 02:52:15 86° ESE 02:56:47 10° SSW
STARLINK-1231 3.5 02:48:08 10° SW 02:52:16 80° SE 02:56:24 10° NE
STARLINK-1174 3.7 02:49:34 10° NW 02:53:42 71° SW 02:56:50 17° SE
SEDSat Delta rocket 4.1 02:48:53 10° WSW 02:55:36 64° S 03:01:26 13° E
Cosmos 1666 3.1 02:52:16 10° NNW 02:56:06 65° W 02:59:53 10° S
Cosmos 2056 Rocket 4.0 02:51:32 10° SSE 02:56:10 36° E 03:00:48 10° NE
SL-08 RB Rocket 4.0 02:52:37 10° S 02:57:13 70° WSW 03:01:49 10° NNW
STARLINK-1232 3.6 02:53:06 10° SW 02:57:14 89° SE 03:01:23 10° NE
Cosmos 1536 3.2 02:54:02 10° NNW 02:58:03 65° W 03:02:04 10° S
STARLINK-1149 3.8 02:54:33 10° NW 02:58:39 64° SW 03:01:36 18° SSE
ARGOS 3.9 02:53:59 10° S 02:59:11 52° W 03:04:26 10° NNW
IUS-15 SRM-1 4.4 02:56:49 10° WSW 03:00:08 19° SSW 03:01:01 16° SSE
STARLINK-1208 3.7 02:58:03 10° SW 03:02:11 82° NW 03:06:20 10° NE
CZ-2C R/B 2.8 02:56:56 10° NNE 03:02:34 87° WNW 03:08:11 10° SSW
STARLINK-1180 4.0 02:59:35 10° NW 03:03:39 56° SW 03:06:25 19° SSE
Cosmos 44 Rocket 3.7 02:59:28 10° NNW 03:04:13 49° ENE 03:07:23 20° SE
GOES 2 Rocket 4.4 02:58:01 10° WSW 03:05:25 47° S 03:09:25 20° ESE
Tsikada Rocket 4.0 02:59:34 10° S 03:05:40 60° E 03:11:44 10° NNE
STARLINK-1271 3.8 03:03:04 10° SW 03:07:11 74° NW 03:11:20 10° NE
Cosmos 1515 4.4 03:05:26 22° SE 03:07:12 34° E 03:10:40 10° NNE
SJ-6B 3.8 03:03:52 10° S 03:07:28 43° W 03:11:03 10° NNW
USA 186 4.0 03:06:01 10° SW 03:07:31 15° W 03:09:03 10° NW
DNEPR-1 R/B 4.0 03:02:30 10° NNW 03:08:32 88° ENE 03:11:59 20° SSE
STARLINK-1153 4.2 03:04:35 10° NW 03:08:35 50° SW 03:11:11 20° SSE
Cosmos 2346 Rocket 4.4 03:04:24 10° S 03:10:28 90° E 03:16:37 10° N
STARLINK-1154 4.0 03:08:04 10° SW 03:12:10 66° NW 03:16:18 10° NE
Meteor 1-19 Rocket 4.3 03:07:52 11° S 03:13:04 53° E 03:18:36 10° NNE
STARLINK-1132 4.4 03:09:36 10° WNW 03:13:33 44° SW 03:15:58 21° SSE
Cosmos 2278 Rocket 2.7 03:10:43 13° SSE 03:15:07 36° ESE 03:20:15 10° NE
ASTEX 1 3.7 03:10:55 10° S 03:15:44 65° W 03:20:37 10° NNW
STARLINK-1197 4.2 03:13:04 10° WSW 03:17:09 60° NW 03:21:15 10° NE
STARLINK-1157 3.3 03:15:31 10° NW 03:18:49 57° NE 03:19:58 34° ESE
STARLINK-1198 4.4 03:18:04 10° WSW 03:22:06 54° NW 03:26:10 10° NE
Okean 1-7 2.9 03:18:58 12° S 03:22:58 87° E 03:27:16 10° N
Meteor 1-18 Rocket 4.1 03:17:31 10° S 03:23:03 81° E 03:28:40 10° N
Meteor 1-4 Rocket 2.8 03:23:35 38° SE 03:24:15 43° E 03:27:32 10° NNE
Cosmos 1844 Rocket 4.5 03:19:52 10° SW 03:24:58 34° WNW 03:30:04 10° N
STARLINK-1129 4.4 03:21:54 10° NNW 03:25:51 42° NE 03:27:36 27° E
Hubble Space Telescope 1.6 03:22:38 10° WSW 03:26:20 32° S 03:26:52 31° SSE
STARLINK-1134 4.2 03:26:52 10° NW 03:30:52 47° NE 03:32:25 31° E
Resurs 01 Rocket 1.6 03:29:31 25° S 03:32:05 85° WSW 03:36:34 10° NNW
Cosmos 1420 Rocket 4.4 03:31:38 30° SSE 03:33:32 41° ESE 03:38:23 10° NNE
Cosmos 371 Rocket 4.4 03:34:23 25° E 03:34:23 25° E 03:38:04 10° NE
STARLINK-1135 4.0 03:31:47 10° NW 03:35:49 52° NE 03:37:10 36° E
Cosmos 407 Rocket 3.7 03:31:14 10° N 03:36:31 58° ENE 03:38:42 34° SE
SPOT 3 Rocket 4.4 03:34:16 13° S 03:38:42 47° W 03:43:39 10° NNW
STARLINK-1141 3.9 03:36:45 10° NW 03:40:50 58° NE 03:41:58 41° E
ATLAS 3B CENTAUR R/B 3.7 03:31:11 10° SW 03:41:28 29° S 03:43:01 27° SSE
ERBS 2.8 03:42:53 42° ENE 03:42:53 42° ENE 03:45:15 10° NE
Sich 1 Rocket 4.0 03:38:33 10° N 03:43:00 49° E 03:44:00 41° ESE
STARLINK-1140 3.7 03:41:41 10° NW 03:45:48 64° NE 03:46:43 48° E
SPOT 1/Viking Rocket 4.1 03:45:02 34° ESE 03:46:30 43° ENE 03:51:21 10° N
Meteor 2-4 Rocket 3.5 03:47:04 31° S 03:49:43 70° E 03:55:03 10° NNE
Cosmos 1782 Rocket 3.5 03:45:49 10° N 03:50:19 85° W 03:51:49 42° S
SPOT 5 4.1 03:49:22 26° E 03:50:19 28° ENE 03:54:44 10° N
STARLINK-1156 3.6 03:46:39 10° NW 03:50:47 72° NE 03:51:31 56° ESE
Cosmos 1544 2.8 03:47:33 10° N 03:51:11 78° E 03:51:24 74° SE
Cosmos 1743 3.9 03:48:54 10° NNW 03:52:28 39° W 03:54:10 24° SW
COSMOS 2406 3.6 03:46:55 10° N 03:52:30 49° ENE 03:54:17 37° ESE
SAR-Lupe-2 3.6 03:49:32 10° N 03:53:07 80° WNW 03:53:52 54° SSW
STARLINK-1148 3.5 03:51:37 10° NW 03:55:46 80° NE 03:56:17 65° ESE
BREEZE M DEB (TANK) 4.4 03:55:59 10° W 03:56:52 15° WSW 03:56:52 15° WSW
Cosmos 1190 Rocket 3.9 03:53:32 10° NNW 03:58:45 78° ENE 04:00:11 49° SSE
Okean 2 Rocket 3.5 03:55:27 10° N 03:59:41 43° E 03:59:43 43° E
STARLINK-1158 3.4 03:56:36 10° NW 04:00:45 88° NE 04:01:05 75° SE
MetOp-B 4.3 04:03:15 36° S 04:05:25 70° WSW 04:10:46 10° NNW
STARLINK-1162 3.4 04:01:33 10° NW 04:05:42 83° SW 04:05:51 80° S
Landsat 7 3.7 04:06:44 58° SSE 04:07:39 85° E 04:12:27 10° N
Cosmos 1140 Rocket 3.4 04:04:26 10° NNW 04:09:39 88° ENE 04:10:47 56° SSE
Cosmos 1975 3.4 04:06:36 10° NNW 04:10:32 51° W 04:11:15 45° SW
Cosmos 2151 Rocket 4.3 04:08:29 10° N 04:12:27 41° ENE 04:12:27 41° ENE
STARLINK-1159 3.8 04:11:33 10° NW 04:15:26 64° WSW 04:15:26 64° WSW
Cosmos 909 Rocket 4.2 04:09:08 10° NNW 04:16:37 82° WSW 04:18:45 46° SSE
Aureole 1 Rocket 3.5 04:13:38 10° NNW 04:18:05 70° WSW 04:19:15 52° SSW
STARLINK-1171 4.0 04:16:33 10° NW 04:20:13 55° WSW 04:20:13 55° WSW
ERS-1 Rocket 2.9 04:20:26 64° ESE 04:20:52 67° ENE 04:25:53 10° N
STARLINK-1155 4.3 04:21:33 10° NW 04:25:00 47° W 04:25:00 47° W
Cosmos 2279 Rocket 3.9 04:19:20 10° N 04:25:36 78° E 04:26:58 56° SSE
Cosmos 1954 Rocket 3.8 04:20:32 10° NNW 04:25:48 79° ENE 04:26:17 71° SE
Cosmos 332 Rocket 3.9 04:27:14 63° ENE 04:27:14 63° ENE 04:31:39 10° NNE
Spot 2 Rocket 4.1 04:26:03 41° SW 04:27:18 50° W 04:32:11 10° NNW
SeaSat 1 3.5 04:24:20 10° NE 04:27:22 32° ENE 04:27:22 32° ENE
Cosmos 2082 Rocket 2.9 04:25:52 10° N 04:31:10 38° ENE 04:31:41 37° ENE
Cosmos 1437 Rocket 3.9 04:33:49 36° NNE 04:33:49 36° NNE 04:36:09 10° N
CARTOSAT-1 3.7 04:33:48 70° N 04:33:48 70° N 04:37:39 10° N
Cosmos 676 Rocket 3.9 04:33:30 10° NNW 04:38:45 76° WSW 04:39:02 73° SW
Cosmos 1833 Rocket 2.5 04:33:42 10° NNW 04:39:19 76° ENE 04:39:38 73° ESE
SEDSat Delta rocket 4.2 04:35:36 10° W 04:41:33 50° SSW 04:41:33 50° SSW
Cosmos 1066 Rocket 4.1 04:45:52 70° ENE 04:45:52 70° ENE 04:50:57 10° NNE
Meteor 1-15 Rocket 4.5 04:40:12 10° N 04:46:01 56° E 04:46:06 56° E
H-2A R/B 4.3 04:43:30 10° WSW 04:44:24 15° SW 04:44:24 15° SW
Cosmos 1092 Rocket 4.4 04:50:48 45° ENE 04:50:48 45° ENE 04:56:09 10° NNE
Cosmos 1943 Rocket 4.0 04:53:31 19° ENE 04:53:31 19° ENE 04:55:29 10° NE
Terra 2.0 04:52:55 67° N 04:52:55 67° N 04:57:03 10° N
Cosmos 2278 Rocket 4.0 04:54:26 10° WSW 04:59:12 27° WNW 05:04:00 10° N
H-2A ROCKET BODY 4.1 04:56:45 39° S 05:00:12 50° SE 05:41:38 10° E
Lacrosse 5 3.1 04:56:02 10° NNW 05:00:35 33° NE 05:00:44 33° NE
Thor Agena Rocket 4.2 05:06:34 10° NNE 05:10:28 46° NE 05:10:28 46° NE
SPOT 5 4.4 05:28:35 29° W 05:28:35 29° W 05:32:44 10° NW
Cosmos 2026 Rocket 4.1 05:44:01 74° N 05:44:01 74° N 05:49:43 10° N
ISS -0.2 05:45:45 10° NNW 05:45:56 11° NNW 05:45:56 11° NNW
USA 215 3.7 05:55:04 50° ENE 05:56:02 54° NE 06:02:22 10° NW
Aureole 3 Rocket 4.3 05:55:32 10° N 06:00:52 65° NE 06:00:52 65° NE
SeaSat 1 4.4 06:02:28 10° N 06:06:15 23° NW 06:07:08 21° WNW
Cosmos 2082 Rocket 3.9 06:10:25 10° NW 06:13:32 23° WNW 06:13:32 23° WNW
Cosmos 2369 Rocket 3.0 06:25:59 49° NNW 06:25:59 49° NNW 06:30:19 10° NNE
CENTAUR R/B 4.1 06:24:36 10° NNW 06:32:17 41° NE 06:36:06 28° E
Cosmos 1943 Rocket 3.4 06:34:59 34° NW 06:34:59 34° NW 06:39:33 10° N
Lacrosse 5 4.2 06:38:56 10° WNW 06:39:54 15° WNW 06:39:54 15° WNW
ATLAS 2AS CENTAUR R/B 2.9 06:45:27 89° NNW 06:45:27 89° NNW 06:53:29 10° NNE
NOSS 3-2 (A) 4.0 06:51:30 10° NNW 06:59:23 89° WSW 06:59:36 86° SSE
COSMOS 2455 3.5 07:04:08 50° NE 07:04:08 50° NE 07:08:33 10° NNE
USA 238 DEB 3.9 06:59:22 10° NNW 07:05:58 73° WNW 07:05:58 73° WNW
USA 238 3.9 06:59:28 10° NNW 07:06:06 74° WNW 07:06:06 74° WNW
SL-4 R/B 4.3 07:11:25 27° NNE 07:11:25 27° NNE 07:13:40 10° NE
ATLAS CENTAUR R/B 3.7 07:21:34 23° NNE 07:21:34 23° NNE 07:23:12 10° NNE
Exosat Rocket 4.4 07:12:05 10° NNW 07:21:20 78° ENE 07:21:39 76° E
FALCON 9 R/B 2.8 07:32:38 82° SE 07:32:38 82° SE 07:48:42 10° E
SL-16 R/B 3.5 07:56:22 34° ESE 07:58:06 41° ENE 08:03:49 10° N
Cosmos 1867 4.2 07:55:08 10° NNW 07:59:10 50° NNW 07:59:10 50° NNW
Timation 2 Rocket 4.4 07:56:50 10° NNW 08:02:59 54° ENE 08:04:08 47° E
NOSS 3-2 (C) 4.3 07:56:44 10° NW 08:04:01 55° WSW 08:04:01 55° WSW
Meteor 1-24 Rocket 4.4 08:10:46 43° NW 08:10:46 43° NW 08:14:51 10° N
Cosmos 1697 Rocket 4.4 08:10:09 22° ESE 08:10:34 22° E 08:14:47 10° NE
Cosmos 1745 Rocket 3.9 08:11:24 85° ENE 08:11:24 85° ENE 08:17:28 10° N
Cosmos 2227 Rocket 4.4 08:09:17 10° N 08:13:29 21° ENE 08:17:39 10° ESE
CZ-2D R/B 2.4 08:10:52 10° NNE 08:15:32 61° ENE 08:15:32 61° ENE
ADEOS II 3.7 08:13:00 10° NE 08:17:09 23° E 08:17:53 23° ESE
ATLAS 3B R/B 2.7 08:12:31 10° NNW 08:19:25 82° ENE 08:21:15 53° SE
CENTAUR R/B 3.4 08:15:12 10° NW 08:23:12 51° WSW 08:23:12 51° WSW
SJ 16-02 3.7 08:21:34 10° NNE 08:24:53 20° ENE 08:26:56 15° E
Resurs 1-4 Rocket 2.1 08:19:35 10° NNE 08:24:31 76° NE 08:24:31 76° NE
GEOS 3 Rocket 4.4 08:32:59 41° WNW 08:32:59 41° WNW 08:36:27 10° NW
Cosmos 468 Rocket 4.3 08:32:55 55° E 08:32:55 55° E 08:37:45 10° NNE
NPP 3.5 08:28:35 10° NNE 08:33:57 84° E 08:33:57 84° E
Cosmos 1656 3.7 08:34:04 71° ESE 08:34:10 72° ESE 08:39:49 10° NNE
Meteor 1-21 Rocket 4.1 08:36:33 73° ESE 08:36:49 75° E 08:42:26 10° NNE
Cosmos 2369 4.4 08:43:42 39° SE 08:44:37 42° ESE 08:49:53 10° NE
Meteor 2-10 Rocket 3.9 08:44:06 10° N 08:49:17 59° E 08:50:25 47° SE
CZ-4C R/B 2.1 08:51:25 56° ESE 08:51:31 56° ESE 08:56:50 10° NE
UNK 4.2 08:55:42 51° NW 08:55:42 51° NW 08:59:22 10° NNW
Alouette 2 Rocket 4.2 08:51:28 10° N 08:57:01 56° ENE 08:57:53 47° ESE
Cosmos 1812 Rocket 4.0 08:56:27 10° NNW 09:00:07 55° NW 09:00:07 55° NW
Cosmos 1709 Rocket 3.9 09:00:26 59° SW 09:01:24 69° W 09:07:30 10° N
Cosmos 1980 Rocket 3.5 09:00:48 25° SE 09:02:52 32° ESE 09:07:48 10° NE
Cosmos 1455 2.8 09:00:48 10° N 09:03:48 54° NNE 09:03:48 54° NNE
Cosmos 1825 Rocket 3.4 09:06:52 82° NNW 09:06:52 82° NNW 09:11:01 10° N
Cosmos 2219 3.1 09:01:28 10° NNW 09:07:09 86° ENE 09:09:29 37° SSE
AQUA 4.1 09:03:07 10° N 09:07:44 53° WNW 09:07:44 53° WNW
Cosmos 540 Rocket 4.0 09:11:42 39° SSE 09:13:10 52° ESE 09:18:09 10° NNE
CZ-4B R/B 4.0 09:09:32 10° N 09:14:27 44° WNW 09:14:58 43° W
IRS-1C 4.1 09:11:32 10° NNE 09:16:53 76° ESE 09:18:33 45° S
Cosmos 990 Rocket 4.1 09:15:43 10° NNW 09:20:59 74° ENE 09:24:26 22° SSE
STARLINK-1212 4.4 09:18:48 10° NNW 09:21:43 37° NE 09:24:37 10° ESE
STARLINK-1105 4.3 09:19:16 10° NNW 09:22:10 37° NE 09:25:04 10° ESE
Cosmos 2297 Rocket 2.1 09:16:33 10° NNW 09:22:14 89° WSW 09:25:53 23° SSE
CBERS-1 4.2 09:18:03 10° N 09:23:03 57° WNW 09:23:58 49° WSW
STARLINK-1247 4.3 09:20:10 10° NNW 09:23:07 38° NE 09:26:03 10° ESE
Cosmos 1703 3.6 09:23:36 52° WNW 09:23:36 52° WNW 09:27:06 10° N
GP-B 3.2 09:18:57 10° N 09:23:17 56° W 09:23:22 56° W
STARLINK-1227 4.3 09:20:38 10° NNW 09:23:33 38° NE 09:26:28 10° ESE
Cosmos-2242 2.8 09:19:40 10° N 09:23:56 89° ENE 09:24:34 64° S
STARLINK-1226 4.2 09:21:28 10° NNW 09:24:25 39° NE 09:27:22 10° ESE
STARLINK-1215 4.2 09:22:24 10° NNW 09:25:22 40° NE 09:28:20 10° ESE
Cosmos 2278 3.9 09:23:50 38° S 09:25:57 67° ESE 09:31:34 10° NNE
Cosmos 841 Rocket 3.5 09:24:51 45° S 09:26:29 79° ESE 09:31:43 10° NNE
STARLINK-1217 4.1 09:24:09 10° NNW 09:27:09 42° NE 09:30:07 10° ESE
STARLINK-1229 4.0 09:25:04 10° NNW 09:28:04 43° NE 09:31:04 10° ESE
STARLINK-1270 4.0 09:25:55 10° NNW 09:28:56 45° NE 09:31:57 10° ESE
Meteor 1-11 4.2 09:27:24 36° S 09:29:50 82° E 09:35:28 10° N
STARLINK-1189 3.9 09:27:45 10° NW 09:30:46 47° NE 09:33:47 10° ESE
STARLINK-1188 3.8 09:28:38 10° NW 09:31:40 48° NE 09:34:42 10° ESE
STARLINK-1187 3.4 09:29:41 10° NW 09:32:45 59° NE 09:35:48 10° ESE
SL-08 R/B 3.5 09:30:05 22° SSE 09:33:08 71° ENE 09:37:47 10° N
STARLINK-1191 3.6 09:31:05 10° NW 09:34:07 51° NE 09:37:08 10° ESE
STARLINK-1221 3.6 09:31:56 10° NW 09:34:59 52° NE 09:38:01 10° ESE
STARLINK-1222 3.5 09:32:51 10° NW 09:35:53 54° NE 09:38:55 10° ESE
IRS-1D 4.1 09:31:21 10° N 09:36:22 43° WNW 09:37:39 36° WSW
STARLINK-1214 3.5 09:33:44 10° NW 09:36:47 55° NE 09:39:49 10° ESE
STARLINK 1040 4.4 09:37:55 26° E 09:37:55 26° E 09:39:27 10° ENE
CZ-2C R/B 4.1 09:38:15 10° NNE 09:41:39 33° E 09:43:44 19° SSE
SL-16 R/B 3.4 09:41:27 27° W 09:41:46 27° W 09:46:52 10° NW
Cosmos 2074 Rocket 3.9 09:39:16 28° S 09:42:50 85° W 09:49:11 10° N
Cosmos 1763 Rocket 4.3 09:43:52 30° W 09:45:06 34° WNW 09:49:44 10° N
H-2A R/B 3.1 09:42:33 10° SE 09:46:38 46° ENE 09:50:50 10° N
Cosmos 1697 Rocket 3.3 09:51:53 30° WSW 09:54:09 43° WNW 09:59:34 10° N
Cosmos 2184 Rocket 3.9 09:51:04 26° SSW 09:54:43 71° W 10:00:53 10° N
CZ-2D R/B 4.0 09:52:57 10° NNW 09:55:30 14° WNW 09:56:52 13° W
USA 234 3.3 09:49:45 10° NE 09:56:17 72° SE 10:00:31 24° SSW
Lacrosse 4 Rocket 3.0 09:52:31 10° N 09:56:32 37° ENE 10:00:26 10° SE
ADEOS II 2.9 09:52:06 10° N 09:56:52 36° WNW 09:58:49 27° WSW
Cosmos 2227 Rocket 2.4 09:52:20 10° NNW 09:57:47 50° WSW 10:02:09 16° S
SL-16 R/B 3.9 09:55:57 10° SSE 10:00:41 28° ESE 10:05:26 10° NE
SJ 16-02 2.2 09:59:37 10° NW 10:03:27 29° W 10:03:51 29° WSW
Resurs 1-4 Rocket 4.2 10:02:30 10° NW 10:03:58 11° WNW 10:05:26 10° WNW
ARIANE 5 R/B 2.9 10:01:15 10° N 10:06:05 47° WNW 10:08:36 26° SW
Iridium 2 3.5 10:05:04 10° N 10:08:50 81° W 10:11:29 18° S
ATLAS 3B R/B 4.2 10:05:28 10° WNW 10:08:24 15° W 10:08:24 15° W
STARLINK-1199 4.5 10:06:34 10° NW 10:10:38 53° NE 10:14:41 10° ESE
STARLINK-43 3.4 10:09:35 32° WSW 10:11:05 67° NW 10:14:45 10° NE
Spot 4 Rocket 4.2 10:07:35 10° N 10:12:38 59° WNW 10:16:00 21° SSW
Cosmos 1610 Rocket 4.4 10:08:06 16° SSW 10:13:10 76° W 10:19:19 10° N
MSX 4.2 10:07:30 10° NNE 10:13:13 64° ESE 10:18:54 10° S
ERS-2 2.3 10:12:05 23° SSW 10:14:05 51° W 10:17:41 10° NNW
Helios 1B 4.5 10:10:05 10° SSE 10:14:24 86° WSW 10:18:45 10° NNW
Cosmos 1898 Rocket 4.2 10:10:03 10° NW 10:14:48 34° W 10:17:52 19° SSW
Cosmos 1842 Rocket 3.6 10:10:44 10° N 10:15:14 83° E 10:19:41 10° S
STARLINK-1210 4.2 10:11:31 10° NW 10:15:37 59° NE 10:19:41 10° ESE
STARLINK-55 3.5 10:17:33 26° SSW 10:19:02 49° SE 10:22:09 10° ENE
STARLINK-1219 4.0 10:16:28 10° NW 10:20:36 65° NE 10:24:41 10° SE
IDEFIX/ARIANE 42P 2.6 10:16:41 10° N 10:21:57 71° WNW 10:26:30 14° SSW
Meteor 1-27 4.2 10:17:09 10° NNW 10:22:40 66° W 10:28:10 10° S
Cosmos 1937 Rocket 4.0 10:19:42 10° NW 10:24:33 39° WSW 10:29:25 10° SSW
STARLINK-1309 4.5 10:23:05 15° S 10:24:58 27° SE 10:27:40 10° ENE
STARLINK-1211 3.8 10:21:25 10° NW 10:25:33 73° NE 10:29:40 10° SE
STARLINK-1282 4.4 10:23:57 15° S 10:25:53 27° SE 10:28:35 10° ENE
STARLINK-1291 4.5 10:24:38 15° S 10:26:45 29° SE 10:29:38 10° ENE
Cosmos 2154 Rocket 4.1 10:21:10 13° SSW 10:26:45 62° W 10:32:58 10° N
STARLINK-1313 4.1 10:25:07 17° S 10:27:00 33° SE 10:29:51 10° ENE
STARLINK-1311 4.0 10:26:04 17° S 10:27:51 32° SE 10:30:34 10° ENE
STARLINK-1279 4.1 10:25:59 17° S 10:27:53 34° SE 10:30:45 10° ENE
STARLINK-1264 4.4 10:26:07 15° S 10:28:14 30° SE 10:31:08 10° ENE
STARLINK-1298 4.3 10:26:35 15° S 10:28:35 29° SE 10:31:21 10° ENE
STARLINK-28 2.9 10:27:13 23° SW 10:29:02 74° SE 10:32:14 10° NE
STARLINK-1293 4.3 10:27:25 15° S 10:29:28 30° SE 10:32:14 10° ENE
STARLINK-1267 4.3 10:27:31 15° S 10:29:42 31° SE 10:32:37 10° ENE
STARLINK-1245 3.7 10:26:24 10° NW 10:30:33 81° NE 10:34:41 10° SE
IRIDIUM 104 4.4 10:26:04 11° SSW 10:30:55 58° W 10:36:04 10° N
STARLINK-1272 4.3 10:28:53 15° S 10:31:07 33° SE 10:34:03 10° ENE
STARLINK-1255 4.2 10:29:09 15° S 10:31:15 32° SE 10:34:04 10° ENE
Skynet4D Del rocket 4.5 10:28:34 17° SW 10:31:57 32° S 10:36:39 10° ESE
STARLINK-1207 4.2 10:30:16 15° SSW 10:32:34 34° SE 10:35:32 10° ENE
STARLINK-1266 4.1 10:31:43 14° SSW 10:34:03 36° SE 10:37:04 10° ENE
STARLINK-1233 3.6 10:31:22 10° NW 10:35:31 90° NE 10:39:39 10° SE
STARLINK-1284 4.0 10:33:11 14° SSW 10:35:35 37° SE 10:38:37 10° ENE
Meteor 1-28 Rocket 4.2 10:33:40 17° SW 10:35:46 27° W 10:39:01 10° NW
STARLINK-1258 4.0 10:34:34 14° SSW 10:37:01 39° SE 10:40:04 10° ENE
Cosmos 1076 Rocket 3.5 10:34:12 10° SSW 10:38:31 75° W 10:42:53 10° N
STARLINK-1292 3.9 10:36:03 14° SSW 10:38:33 41° SE 10:41:38 10° ENE
Cosmos 2360 Rocket 4.3 10:34:56 10° SSE 10:39:23 25° ESE 10:43:50 10° NE
STARLINK-41 3.0 10:37:29 17° SW 10:39:45 67° SE 10:42:52 10° NE
STARLINK-1274 3.8 10:37:33 14° SSW 10:40:07 43° SE 10:43:14 10° ENE
STARLINK-1204 3.5 10:36:22 10° NW 10:40:30 82° SW 10:44:38 10° SE
CZ-4C R/B 3.9 10:36:56 10° W 10:40:32 19° NW 10:44:32 10° N
CZ-2C R/B 3.2 10:35:28 10° NNE 10:40:33 57° E 10:45:38 10° S
Landsat 5 3.8 10:36:15 10° S 10:40:36 54° W 10:45:03 10° NNW
ATLAS CENTAUR R/B 3.6 10:36:54 10° WNW 10:41:26 45° SW 10:52:40 10° SSE
STARLINK-1289 3.8 10:39:03 13° SSW 10:41:41 44° SE 10:44:48 10° ENE
Meteor 2-2 Rocket 4.4 10:36:40 10° NNW 10:42:41 77° W 10:48:40 10° S
STARLINK-1303 3.7 10:40:28 13° SSW 10:43:11 47° SE 10:46:23 10° ENE
Cosmos 962 Rocket 4.4 10:37:29 10° SSW 10:43:34 74° W 10:49:42 10° N
Cosmos 1125 Rocket 4.3 10:39:32 10° N 10:44:39 56° ENE 10:49:44 10° SSE
STARLINK-1312 3.6 10:42:00 13° SSW 10:44:45 49° SE 10:47:55 10° ENE
CZ-4C R/B 3.8 10:42:07 10° SSW 10:45:20 32° W 10:48:37 10° NNW
STARLINK-1238 3.5 10:41:19 10° NW 10:45:28 73° SW 10:49:34 10° SE
Cosmos 1892 2.8 10:41:53 10° SSW 10:45:40 58° W 10:49:26 10° N
STARLINK-33 2.9 10:43:36 15° SW 10:46:06 82° NW 10:49:19 10° NE
Cosmos 1980 Rocket 3.2 10:42:35 13° WSW 10:46:47 30° WNW 10:51:40 10° N
STARLINK-1201 3.6 10:46:20 10° NW 10:50:26 65° SW 10:54:32 10° SE
Uosat 12 SS-18 rocket 4.1 10:47:03 10° NNW 10:51:24 84° WSW 10:56:15 10° SSE
Timation 1 Rocket 4.4 10:48:29 10° NNW 10:54:29 89° ENE 11:00:26 10° SSE
STARLINK-66 3.1 10:51:48 12° WSW 10:54:38 62° NW 10:57:48 10° NE
Cosmos 1869 3.7 10:51:42 10° NNW 10:55:22 41° W 10:59:00 10° SSW
STARLINK-1206 3.6 10:51:20 10° NW 10:55:24 58° SW 10:59:28 10° SSE
STARLINK-1205 3.8 10:56:20 10° NW 11:00:22 51° SW 11:04:22 10° SSE
Shenzhou-11 Module 4.0 11:01:04 10° S 11:02:31 14° SE 11:03:57 10° ESE
Cosmos 2221 3.3 10:59:29 10° NNW 11:03:19 31° W 11:07:09 10° SSW
PSLV R/B 3.8 10:59:46 10° N 11:03:51 50° WNW 11:07:54 10° SSW
NOSS 2-1 (E) 2.9 11:00:57 10° SSW 11:04:27 81° WNW 11:07:53 10° NNE
STARLINK-1218 3.9 11:01:20 10° WNW 11:05:18 45° SW 11:09:15 10° SSE
STARLINK-75 3.3 11:02:34 10° WSW 11:05:44 54° NW 11:08:53 10° NE
Meteor 1-31 Rocket 4.1 11:03:47 10° NNE 11:07:21 39° E 11:10:56 10° S
SAR-Lupe-4 4.0 11:05:20 10° S 11:08:42 40° W 11:12:06 10° NNW
STARLINK-1254 4.0 11:06:22 10° WNW 11:10:16 40° SW 11:14:09 10° SSE
Cosmos 2341 Rocket 4.4 11:07:18 10° SSW 11:13:24 47° W 11:19:32 10° N
Centaur D-1A AC-31 3.9 10:09:04 10° W 11:13:59 58° SSW 11:20:29 10° ESE
